Location: Lombard
(41.8800°N, 88.0080°W)
Time: 16:33:40
(UTC-06:00)

Tiangong - Pass Details

Date: 30 November 2022
Orbit: 383 x 386 km, 41.5° (Epoch: 28 January)

Event Time Altitude Azimuth Distance (km) Brightness Sun altitude
Rises 18:40:57 0° 250° (WSW) 2,259 3.0 -25.3°
Reaches altitude 10° 18:43:02 10° 247° (WSW) 1,409 1.7 -25.6°
Enters shadow 18:44:22 22° 241° (WSW) 892 0.3 -25.9°
